Change the Weather History Date:

Sunday, August 25, 2013

  Actual Average Record
Temperature  
Mean Temperature 70 °F -  
Max Temperature 80 °F 81 °F 91 °F (1998)
Min Temperature 59 °F 66 °F 59 °F (2005)
Cooling Degree Days 4    
Growing Degree Days 20 (Base 50)    
Moisture  
Dew Point 60 °F    
Average Humidity 76    
Maximum Humidity 100    
Minimum Humidity 39    
Precipitation  
Precipitation 0.00 in - - ()
Sea Level Pressure  
Sea Level Pressure 30.36 in    
Wind  
Wind Speed 3 mph (SSE)    
Max Wind Speed 9 mph    
Max Gust Speed -    
Visibility 10 miles    
Events      
Averages and records for this station are not official NWS values.
T = Trace of Precipitation, MM = Missing Value Source: NWS Daily Summary

Daily Weather History Graph

Daily Weather History Graph

Search for Another Location

Airport or City:

Trip Planner

Search our weather history database for the weather conditions in past years. The results will help you decide how hot, cold, wet, or windy it might be!

Date:

Astronomy

Aug. 25, 2013 Rise Set
Actual Time 6:27 AM EDT 7:46 PM EDT
Civil Twilight 5:59 AM EDT 8:14 PM EDT
Nautical Twilight 5:26 AM EDT 8:47 PM EDT
Astronomical Twilight 4:51 AM EDT 9:22 PM EDT
Moon 10:18 PM EDT (8/25) 11:25 AM EDT (8/25)
Length of Visible Light 14h 14m
Length of Day
13h 18m
Waning Gibbous, 76% of the Moon is Illuminated
Aug 25
Waning Gibbous
Aug 28
Last Quarter
Sep 5
New
Sep 12
First Quarter
Sep 19
Full

Hourly Weather History & Observations

Time (EDT) Temp. Heat Index Dew Point Humidity Pressure Visibility Wind Dir Wind Speed Gust Speed Precip Events Conditions
12:00 AM 69.8 °F - 62.6 °F 78% 30.36 in 10.0 mi East 4.6 mph - N/A   Clear
12:24 AM 69.8 °F - 62.6 °F 78% 30.36 in 10.0 mi East 4.6 mph - N/A   Clear
12:42 AM 69.8 °F - 62.6 °F 78% 30.36 in 10.0 mi East 5.8 mph - N/A   Clear
1:03 AM 68.0 °F - 62.6 °F 83% 30.36 in 10.0 mi East 3.5 mph - N/A   Clear
1:24 AM 68.0 °F - 62.6 °F 83% 30.36 in 10.0 mi East 3.5 mph - N/A   Clear
1:42 AM 68.0 °F - 62.6 °F 83% 30.36 in 10.0 mi Calm Calm - N/A   Clear
2:03 AM 64.4 °F - 62.6 °F 94% 30.36 in 10.0 mi Calm Calm - N/A   Clear
2:24 AM 60.8 °F - 60.8 °F 100% 30.36 in 10.0 mi Calm Calm - N/A   Clear
2:42 AM 62.6 °F - 60.8 °F 94% 30.35 in 10.0 mi Calm Calm - N/A   Clear
3:03 AM 62.6 °F - 60.8 °F 94% 30.35 in 10.0 mi Calm Calm - N/A   Clear
3:24 AM 62.6 °F - 60.8 °F 94% 30.36 in 10.0 mi Calm Calm - N/A   Clear
3:42 AM 62.6 °F - 62.6 °F 100% 30.36 in 10.0 mi Calm Calm - N/A   Scattered Clouds
4:03 AM 60.8 °F - 60.8 °F 100% 30.36 in 10.0 mi Calm Calm - N/A   Scattered Clouds
4:24 AM 59.0 °F - 59.0 °F 100% 30.36 in 10.0 mi WNW 3.5 mph - N/A   Scattered Clouds
4:42 AM 59.0 °F - 59.0 °F 100% 30.37 in 10.0 mi Calm Calm - N/A   Clear
5:03 AM 60.8 °F - 59.0 °F 94% 30.38 in 10.0 mi NW 3.5 mph - N/A   Clear
5:24 AM 60.8 °F - 60.8 °F 100% 30.38 in 10.0 mi Calm Calm - N/A   Clear
5:33 AM 59.0 °F - 59.0 °F 100% 30.38 in 10.0 mi Calm Calm - N/A   Clear
5:45 AM 60.8 °F - 60.8 °F 100% 30.30 in 10.0 mi Calm Calm - N/A   Scattered Clouds
6:45 AM 60.8 °F - 60.8 °F 100% 30.41 in 10.0 mi Calm Calm - N/A   Scattered Clouds
7:58 AM 64.4 °F - 64.4 °F 100% 30.43 in 10.0 mi Calm Calm - N/A   Scattered Clouds
8:45 AM 68.0 °F - 64.4 °F 88% 30.43 in 10.0 mi Calm Calm - N/A   Mostly Cloudy
9:45 AM 71.6 °F - 66.2 °F 83% 30.43 in 10.0 mi Calm Calm - N/A   Scattered Clouds
10:45 AM 75.2 °F - 64.4 °F 69% 30.43 in 10.0 mi Calm Calm - N/A   Scattered Clouds
11:50 AM 77.0 °F - 62.6 °F 61% 30.41 in 10.0 mi SE 5.8 mph - N/A   Scattered Clouds
12:50 PM 77.0 °F - 64.4 °F 65% 30.40 in 10.0 mi SSE 9.2 mph - N/A   Scattered Clouds
1:45 PM 78.8 °F - 55.4 °F 44% 30.40 in 10.0 mi SSE 9.2 mph - N/A   Mostly Cloudy
2:50 PM 80.6 °F 80.5 °F 55.4 °F 42% 30.37 in 10.0 mi SE 8.1 mph - N/A   Scattered Clouds
3:54 PM 78.8 °F - 55.4 °F 44% 30.36 in 10.0 mi SE 9.2 mph - N/A   Scattered Clouds
4:54 PM 78.8 °F - 51.8 °F 39% 30.34 in 10.0 mi SSE 9.2 mph - N/A   Scattered Clouds
5:54 PM 78.8 °F - 57.2 °F 47% 30.32 in 10.0 mi SE 9.2 mph - N/A   Partly Cloudy
6:54 PM 75.2 °F - 55.4 °F 50% 30.30 in 10.0 mi South 8.1 mph - N/A   Partly Cloudy
7:45 PM 71.6 °F - 51.8 °F 50% 30.26 in 10.0 mi South 5.8 mph - N/A   Clear
8:54 PM 73.4 °F - 57.2 °F 57% 30.30 in 10.0 mi South 6.9 mph - N/A   Clear
9:45 PM 73.4 °F - 57.2 °F 57% 30.31 in 10.0 mi South 5.8 mph - N/A   Clear
10:06 PM 71.6 °F - 57.2 °F 60% 30.31 in 10.0 mi South 3.5 mph - N/A   Clear
10:24 PM 71.6 °F - 59.0 °F 64% 30.30 in 10.0 mi South 4.6 mph - N/A   Clear
10:45 PM 71.6 °F - 57.2 °F 60% 30.31 in 10.0 mi SSW 5.8 mph - N/A   Clear
11:06 PM 71.6 °F - 59.0 °F 64% 30.31 in 10.0 mi SW 3.5 mph - N/A   Clear
11:27 PM 69.8 °F - 59.0 °F 68% 30.31 in 10.0 mi SSW 3.5 mph - N/A   Clear
11:45 PM 69.8 °F - 59.0 °F 68% 30.31 in 10.0 mi SSW 3.5 mph - N/A   Clear